Date String (YYYY-MM-DD hh:mm:ss) UTC,Instrument flags,absolute air pressure of the measurement (hPa),sample flow rate (lpm),inlet stack bypass flow (lpm),air temperature of the measurement (°C),ambient temperature measured by the external sensor (°C),aerosol sample conditioner tube jacket temperature (°C),OPC LED temperature (°C),internal box temperature (°C),relative humidity of the measurement (%),span deviation,mass concentration of particles derived from Lorenz-Mie calculation of OPC scattering (μg/m³),mass concentration of particles derived from Lorenz-Mie calculation of OPC scattering (μg/m³),mass concentration of particles derived from Lorenz-Mie calculation of OPC scattering (μg/m³)
DateTimeUTC,F1_M11,P_M11,Q1_M11,Q2_M11,T1_M11,T2_M11,T3_M11,T4_M11,T5_M11,U1_M11,ZSPAN_M11,X0_M11,X2_M11,X1_M11
2023-07-16 10:00:00,SystemResetWarning,0833.7,5.00,000.00,029.6,028.3,000.0,038.1,031.2,21.2,0000.0,0009.54,0005.28,0004.67
2023-07-16 10:01:00,SystemResetWarning,0833.8,5.00,000.00,029.7,028.3,000.0,038.1,031.2,21.6,0000.0,0009.91,0005.26,0004.67
2023-07-16 10:02:00,SystemResetWarning,0833.8,5.00,000.00,029.7,028.4,000.0,038.1,031.3,21.4,0000.0,0010.06,0005.27,0004.67
2023-07-16 10:03:00,SystemResetWarning,0833.8,5.00,000.00,029.7,028.4,000.0,038.1,031.3,21.1,0000.0,0010.03,0005.34,0004.71
2023-07-16 10:04:00,SystemResetWarning,0833.8,5.00,000.00,029.7,028.5,000.0,038.2,031.3,21.3,0000.0,0010.10,0005.39,0004.75
2023-07-16 10:05:00,SystemResetWarning,0833.8,5.00,000.00,029.7,028.5,000.0,038.2,031.3,20.8,0000.0,0010.23,0005.41,0004.76
2023-07-16 10:06:00,SystemResetWarning,0833.8,5.00,000.00,029.8,028.5,000.0,038.2,031.3,20.6,0000.0,0010.23,0005.42,0004.77
2023-07-16 10:07:00,SystemResetWarning,0833.7,5.00,000.00,029.8,028.5,000.0,038.2,031.3,20.0,0000.0,0010.43,0005.44,0004.78
2023-07-16 10:08:00,SystemResetWarning,0833.7,5.01,000.00,029.8,028.5,000.0,038.2,031.4,19.0,0000.0,0010.62,0005.42,0004.78
2023-07-16 10:09:00,SystemResetWarning,0833.7,5.00,000.00,029.8,028.5,000.0,038.2,031.4,18.6,0000.0,0010.67,0005.40,0004.80
2023-07-16 10:10:00,SystemResetWarning,0833.8,5.00,000.00,029.8,028.6,000.0,038.3,031.4,19.9,0000.0,0011.27,0005.44,0004.82
2023-07-16 10:11:00,SystemResetWarning,0833.8,5.00,000.00,029.8,028.6,000.0,038.3,031.4,19.7,0000.0,0011.16,0005.51,0004.87
2023-07-16 10:12:00,SystemResetWarning,0833.8,4.99,000.00,029.9,028.6,000.0,038.3,031.4,19.6,0000.0,0010.87,0005.56,0004.92
2023-07-16 10:13:00,SystemResetWarning,0833.8,4.99,000.00,029.9,028.6,000.0,038.3,031.4,19.6,0000.0,0010.72,0005.61,0004.95
2023-07-16 10:14:00,SystemResetWarning,0833.8,5.01,000.00,029.9,028.6,000.0,038.3,031.4,19.1,0000.0,0010.83,0005.65,0004.97
2023-07-16 10:15:00,SystemResetWarning,0833.8,5.02,000.00,029.9,028.6,000.0,038.3,031.5,19.0,0000.0,0010.93,0005.62,0004.96
2023-07-16 10:16:00,SystemResetWarning,0833.8,5.00,000.00,029.9,028.6,000.0,038.4,031.5,18.5,0000.0,0010.78,0005.57,0004.94
2023-07-16 10:17:00,SystemResetWarning,0833.7,4.99,000.00,029.9,028.6,000.0,038.4,031.5,18.7,0000.0,0010.66,0005.52,0004.91
2023-07-16 10:18:00,SystemResetWarning,0833.9,4.99,000.00,030.0,028.7,000.0,038.4,031.5,18.6,0000.0,0010.41,0005.47,0004.88
2023-07-16 10:19:00,SystemResetWarning,0833.9,5.00,000.00,030.0,028.7,000.0,038.4,031.5,18.1,0000.0,0009.99,0005.45,0004.84
2023-07-16 10:20:00,SystemResetWarning,0833.8,5.00,000.00,030.0,028.4,000.0,038.4,031.5,18.1,0000.0,0009.93,0005.44,0004.81
2023-07-16 10:21:00,SystemResetWarning,0833.8,5.00,000.00,029.9,026.5,000.0,038.3,031.3,18.1,0000.0,0009.29,0005.40,0004.79
2023-07-16 10:22:00,SystemResetWarning,0833.8,5.01,000.00,029.8,025.1,000.0,038.2,031.0,18.9,0000.0,0009.26,0005.34,0004.74
2023-07-16 10:23:00,SystemResetWarning,0833.8,5.01,000.00,029.7,025.1,000.0,038.1,030.6,20.0,0000.0,0009.10,0005.27,0004.69
2023-07-16 10:24:00,SystemResetWarning,0833.8,5.01,000.00,029.5,025.4,000.0,038.1,030.6,20.2,0000.0,0009.08,0005.21,0004.64
2023-07-16 10:25:00,SystemResetWarning,0833.8,4.98,000.00,029.5,025.9,000.0,038.1,030.7,19.1,0000.0,0009.23,0005.13,0004.59
2023-07-16 10:26:00,SystemResetWarning,0833.8,5.00,000.00,029.5,026.3,000.0,038.1,030.7,18.2,0000.0,0009.03,0005.09,0004.54
2023-07-16 10:27:00,SystemResetWarning,0833.8,5.01,000.00,029.5,026.6,000.0,038.1,030.8,18.1,0000.0,0008.96,0005.04,0004.49
2023-07-16 10:28:00,SystemResetWarning,0833.8,5.00,000.00,029.4,027.0,000.0,038.1,030.9,18.7,0000.0,0009.50,0004.99,0004.45
2023-07-16 10:29:00,SystemResetWarning,0833.8,5.00,000.00,029.4,027.2,000.0,038.1,030.9,18.5,0000.0,0010.54,0005.00,0004.42
2023-07-16 10:30:00,SystemResetWarning,0833.8,5.00,000.00,029.5,027.4,000.0,038.1,030.9,18.7,0000.0,0010.39,0004.97,0004.40
2023-07-16 10:31:00,SystemResetWarning,0833.8,5.00,000.00,029.5,027.6,000.0,038.1,031.0,19.3,0000.0,0010.27,0004.93,0004.37
2023-07-16 10:32:00,SystemResetWarning,0833.9,5.00,000.00,029.5,027.7,000.0,038.1,031.0,22.1,0000.0,0010.10,0004.88,0004.33
2023-07-16 10:33:00,SystemResetWarning,0833.9,5.00,000.00,029.5,027.9,000.0,038.1,031.0,23.5,0000.0,0010.14,0004.87,0004.33
2023-07-16 10:34:00,SystemResetWarning,0833.9,5.00,000.00,029.5,028.0,000.0,038.1,031.1,22.5,0000.0,0010.27,0004.88,0004.33
2023-07-16 10:35:00,SystemResetWarning,0834.0,4.99,000.00,029.5,028.1,000.0,038.1,031.1,21.0,0000.0,0010.23,0004.86,0004.33
2023-07-16 10:36:00,SystemResetWarning,0834.0,4.99,000.00,029.6,028.1,000.0,038.1,031.1,19.3,0000.0,0010.07,0004.87,0004.31
2023-07-16 10:37:00,SystemResetWarning,0833.9,4.99,000.00,029.6,028.2,000.0,038.1,031.2,18.7,0000.0,0010.05,0004.86,0004.28
2023-07-16 10:38:00,SystemResetWarning,0833.9,5.00,000.00,029.6,028.2,000.0,038.1,031.2,18.3,0000.0,0010.08,0004.86,0004.29
2023-07-16 10:39:00,SystemResetWarning,0833.9,5.00,000.00,029.6,028.3,000.0,038.1,031.2,18.5,0000.0,0009.64,0004.85,0004.28
2023-07-16 10:40:00,SystemResetWarning,0833.9,5.01,000.00,029.6,028.3,000.0,038.1,031.2,18.0,0000.0,0008.41,0004.80,0004.29
2023-07-16 10:41:00,SystemResetWarning,0833.9,5.00,000.00,029.7,028.4,000.0,038.1,031.3,19.3,0000.0,0008.36,0004.81,0004.30
2023-07-16 10:42:00,SystemResetWarning,0834.0,5.00,000.00,029.7,028.4,000.0,038.1,031.3,17.1,0000.0,0008.49,0004.91,0004.37
2023-07-16 10:43:00,SystemResetWarning,0833.9,5.00,000.00,029.7,028.4,000.0,038.2,031.3,16.5,0000.0,0008.94,0005.06,0004.49
2023-07-16 10:44:00,SystemResetWarning,0833.9,5.00,000.00,029.7,028.4,000.0,038.2,031.3,16.4,0000.0,0009.46,0005.21,0004.58
2023-07-16 10:45:00,SystemResetWarning,0833.9,4.99,000.00,029.7,028.4,000.0,038.2,031.3,18.1,0000.0,0009.84,0005.28,0004.62
2023-07-16 10:46:00,SystemResetWarning,0833.8,4.99,000.00,029.8,028.5,000.0,038.2,031.3,20.9,0000.0,0010.25,0005.25,0004.61
2023-07-16 10:47:00,SystemResetWarning,0833.9,5.00,000.00,029.8,028.5,000.0,038.2,031.4,20.3,0000.0,0010.13,0005.22,0004.62
2023-07-16 10:48:00,SystemResetWarning,0833.9,5.00,000.00,029.8,028.5,000.0,038.2,031.4,19.8,0000.0,0009.97,0005.17,0004.63
2023-07-16 10:49:00,SystemResetWarning,0833.9,5.00,000.00,029.8,028.5,000.0,038.3,031.4,18.4,0000.0,0010.00,0005.16,0004.63
2023-07-16 10:50:00,SystemResetWarning,0833.8,5.01,000.00,029.8,028.5,000.0,038.3,031.4,17.6,0000.0,0010.22,0005.16,0004.63
2023-07-16 10:51:00,SystemResetWarning,0833.9,4.99,000.00,029.9,028.5,000.0,038.3,031.4,16.8,0000.0,0010.49,0005.20,0004.65
2023-07-16 10:52:00,SystemResetWarning,0833.9,5.00,000.00,029.9,028.5,000.0,038.3,031.4,16.8,0000.0,0010.58,0005.20,0004.63
2023-07-16 10:53:00,SystemResetWarning,0833.9,5.00,000.00,029.9,028.5,000.0,038.3,031.4,16.4,0000.0,0010.38,0005.06,0004.53
2023-07-16 10:54:00,SystemResetWarning,0833.9,4.99,000.00,029.9,028.6,000.0,038.3,031.4,15.8,0000.0,0009.88,0004.83,0004.35
2023-07-16 10:55:00,SystemResetWarning,0833.9,5.00,000.00,029.9,028.6,000.0,038.3,031.5,15.6,0000.0,0009.18,0004.62,0004.21
2023-07-16 10:56:00,SystemResetWarning,0834.0,5.00,000.00,029.9,028.6,000.0,038.4,031.5,15.9,0000.0,0009.18,0004.54,0004.18
2023-07-16 10:57:00,SystemResetWarning,0834.0,5.00,000.00,029.9,028.6,000.0,038.4,031.4,15.8,0000.0,0009.12,0004.60,0004.21
2023-07-16 10:58:00,SystemResetWarning,0834.0,5.00,000.00,030.0,028.6,000.0,038.4,031.5,15.7,0000.0,0009.35,0004.66,0004.24
2023-07-16 10:59:00,SystemResetWarning,0834.0,5.00,000.00,030.0,028.6,000.0,038.4,031.5,15.4,0000.0,0009.44,0004.71,0004.27
